Location: Campillo
(40.8621°N, 4.2488°W)
Time: 17:27:22
(UTC+00:00)

Cosmos 158 Rocket - Pass Details

Date: 30 September 2021
Orbit: 699 x 792 km, 74.0° (Epoch: 27 October)

Event Time Altitude Azimuth Distance (km) Brightness Sun altitude
Rises 19:21:07 0° 339° (NNW) 3,139 7.6 -16.0°
Reaches altitude 10° 19:23:29 10° 338° (NNW) 2,202 6.8 -16.5°
Maximum altitude 19:28:26 76° 253° (WSW) 730 4.0 -17.4°
Drops below altitude 10° 19:33:16 10° 168° (SSE) 2,156 6.1 -18.3°
Enters shadow 19:34:00 - 167° (SSE) 2,444 6.4 -18.4°
